Starlink 4464

operational
NORAD ID: 53669 Int'l Des: 2022-105 Owner: SPXS Country: US Constellation: starlink
LEOCIRCULARRETROGRADESSO

Über Starlink 4464

Beschreibung wird geladen...

Live-Position

3D-Globus wird geladen...

Nächste Überflüge

Höhenverlauf

Altitude vs Time

uPlot chart will show altitude changes over time

Zweizeiliger Elementsatz

1 53669U 22105X 26035.62612903 .00000997 00000-0 82172-4 0 9993
2 53669 97.6038 277.8276 0000669 101.7054 258.4246 15.01264081188277
Epoch: 4. Feb. 2026 • Age: 16 hours

Aktueller Status

Höhe 573.3 km
Geschwindigkeit 7.58 km/s
Subsatellitenpunkt 62.38°N, 18.77°E
Startdatum 31. Aug. 2022
Alter 3.4 years
Typ internet

Technische Details

Klassifizierung Payload
Masse 300.00 kg
Trockenmasse 290.00 kg
Gesamtmasse 300.00 kg
Länge 0.20 m
Durchmesser 2.80 m
Spannweite 9.00 m
Form Box + pan
Hersteller SPXS
Bus-Typ Starlink
Phasenstatus In Orbit
Besitzer/Staat SPXS/US

Große Konstellationen

Loading constellations...